Location: Ab? ar R?sh Ba?r?
(24.1861°N, 32.8847°E)
Time: 11:55:58
(UTC+00:00)

Centaur AC-112 - Pass Details

Date: 24 October 2021
Orbit: 287 x 20311 km, 26.6° (Epoch: 03 December)

Event Time Altitude Azimuth Distance (km) Brightness Sun altitude
Rises 14:27:53 0° 262° (W) 18,905 12.1 9.4°
Reaches altitude 10° 14:59:51 10° 267° (W) 12,058 11.2 2.4°
Maximum altitude 15:31:29 78° 354° (N) 1,593 4.6 -4.6°
Drops below altitude 10° 15:36:29 10° 82° (E) 2,324 4.8 -5.7°
Enters shadow 15:36:53 - 83° (E) 2,487 4.9 -5.8°
